Location: Domont
(49.0278°N, 2.3264°E)
Time: 20:27:19
(UTC+00:00)

AO-73 - Pass Details

Date: 03 July 2022
Orbit: 579 x 656 km, 97.6° (Epoch: 08 August)

Event Time Altitude Azimuth Distance (km) Brightness Sun altitude
Rises 02:53:54 0° 26° (NNE) 2,965 ? -7.7°
Reaches altitude 10° 02:56:39 10° 43° (NE) 2,060 ? -7.4°
Maximum altitude 02:59:59 20° 91° (E) 1,503 ? -7.1°
Drops below altitude 10° 03:03:19 10° 139° (SE) 2,065 ? -6.7°
Sets 03:06:03 0° 156° (SSE) 2,974 ? -6.4°
